Weather History for 62460 - July, 2014

Change the Weather History Date:

Wednesday, July 2, 2014

  Actual Average Record
Temperature  
Mean Temperature 96 °F -  
Max Temperature 105 °F 100 °F - ()
Min Temperature 86 °F 81 °F - ()
Cooling Degree Days 30    
Growing Degree Days 46 (Base 50)    
Moisture  
Dew Point 61 °F    
Average Humidity 33    
Maximum Humidity 55    
Minimum Humidity 15    
Precipitation  
Precipitation 0.00 in 0.00 in - ()
Sea Level Pressure  
Sea Level Pressure 29.74 in    
Wind  
Wind Speed 18 mph ()    
Max Wind Speed 24 mph    
Max Gust Speed -    
T = Trace of Precipitation, MM = Missing Value Source: Averaged Metar Reports

Daily Weather History Graph

Daily Weather History Graph

Search for Another Location

Airport or City:

Trip Planner

Search our weather history database for the weather conditions in past years. The results will help you decide how hot, cold, wet, or windy it might be!

Date:

Astronomy

Jul. 02, 2014 Rise Set
Actual Time 4:49 AM EET 6:42 PM EET
Civil Twilight 4:23 AM EET 7:09 PM EET
Nautical Twilight 3:51 AM EET 7:41 PM EET
Astronomical Twilight 3:17 AM EET 8:15 PM EET
Moon 9:09 AM EET (7/2) 9:52 PM EET (7/2)
Length of Visible Light 14h 46m
Length of Day
13h 52m
Waxing Crescent, 22% of the Moon is Illuminated
Jul 2
Waxing Crescent
Jul 5
First Quarter
Jul 12
Full
Jul 19
Last Quarter
Jul 27
New

Hourly Weather History & Observations

Time (EET) Temp. Heat Index Dew Point Humidity Pressure Visibility Wind Dir Wind Speed Gust Speed Precip Events Conditions
12:00 AM 91.4 °F 90.7 °F 59.0 °F 34% 29.74 in - North 17.3 mph - N/A   Clear
1:00 AM 89.6 °F 89.5 °F 60.8 °F 38% 29.74 in - North 21.9 mph - N/A   Clear
2:00 AM 89.6 °F 92.2 °F 66.2 °F 46% 29.74 in - North 20.7 mph - N/A   Clear
3:00 AM 89.6 °F 91.1 °F 64.4 °F 43% 29.74 in - North 20.7 mph - N/A   Clear
4:00 AM 89.6 °F 91.1 °F 64.4 °F 43% 29.74 in - North 19.6 mph - N/A   Clear
5:00 AM 87.8 °F 90.4 °F 66.2 °F 49% 29.74 in - North 20.7 mph - N/A   Clear
6:00 AM 86.0 °F 89.4 °F 68.0 °F 55% 29.77 in - North 23.0 mph - N/A   Clear
7:00 AM 87.8 °F 91.4 °F 68.0 °F 52% 29.77 in - North 23.0 mph - N/A   Clear
8:00 AM 91.4 °F 94.0 °F 66.2 °F 43% 29.77 in - North 23.0 mph - N/A   Clear
9:00 AM 91.4 °F 94.0 °F 66.2 °F 43% 29.80 in - North 20.7 mph - N/A   Clear
10:00 AM 93.2 °F 96.2 °F 66.2 °F 41% 29.80 in - North 24.2 mph - N/A   Clear
11:00 AM 95.0 °F 97.0 °F 64.4 °F 36% 29.80 in - North 23.0 mph - N/A   Clear
12:00 PM 98.6 °F 99.4 °F 60.8 °F 29% 29.77 in - North 17.3 mph - N/A   Clear
1:00 PM 102.2 °F 101.4 °F 57.2 °F 22% 29.77 in - NNE 17.3 mph - N/A   Clear
2:00 PM 102.2 °F 101.4 °F 57.2 °F 22% 29.74 in - North 18.4 mph - N/A   Clear
3:00 PM 104.0 °F 102.3 °F 53.6 °F 19% 29.71 in - North 15.0 mph - N/A   Clear
4:00 PM 105.8 °F - 50.0 °F 15% 29.71 in - North 20.7 mph - N/A   Clear
5:00 PM 105.8 °F - 51.8 °F 17% 29.71 in - North 16.1 mph - N/A   Clear
6:00 PM 104.0 °F 102.3 °F 53.6 °F 19% 29.68 in - North 18.4 mph - N/A   Clear
7:00 PM 102.2 °F 100.4 °F 53.6 °F 20% 29.71 in - North 13.8 mph - N/A   Clear
8:00 PM 98.6 °F 97.6 °F 57.2 °F 25% 29.71 in - North 11.5 mph - N/A   Clear
9:00 PM 95.0 °F 93.7 °F 57.2 °F 28% 29.71 in - North 23.0 mph - N/A   Clear
10:00 PM 95.0 °F 97.0 °F 64.4 °F 36% 29.71 in - North 21.9 mph - N/A   Clear
11:00 PM 95.0 °F 93.7 °F 57.2 °F 28% 29.71 in - North 24.2 mph - N/A   Clear